Flag for Greece Weather past 2 weeks in Preveza, Greece

Now
68 °F

Passing clouds.


Feels Like: 68 °F
Forecast: 63 / 72 °F
Wind: No wind

Location: Aktion Airport

Current Time: May 22, 2015 at 10:43:51 PM

Latest Report: May 22, 2015 at 9:50 PM


Visibility: N/A

Pressure: 29.83 "Hg

Humidity: 69%

Dew point: 57 °F

Location of PrevezaLocation

Historic Weather in Preveza — Graph

°F

Preveza temperature yesterday

Maximum temperature yesterday: 77 °F (at 4:50 PM)
Minimum temperature yesterday: 59 °F (at 2:50 AM)
Average temperature yesterday: 70 °F

Past Weeks' High & Low Weather Summary

 TemperatureHumidityPressure
High86 °F (May 16, 2:20 PM)100% (May 21, 2:50 AM)30.18 "Hg (May 21, 2:50 AM)
Low55 °F (May 14, 6:50 AM)22% (May 16, 7:50 PM)29.80 "Hg (May 19, 1:20 PM)
Average70 °F64%29.97 "Hg
* Reported May 7 8:20 PM — May 22 8:50 PM, Preveza, Weather by CustomWeather, © 2015

Note: Actual official high and low records may vary slightly from our data, if they occured in-between our weather recording intervals... More about our weather records

Advertising

Preveza weather history for previous 24 hours

 ConditionsComfort  
Time TempWeatherWind HumidityBarometerVisibility
8:50 PM
Fri, May 22
73 °FScattered clouds.7 mph50%29.83 "HgN/A
8:20 PM77 °FScattered clouds.8 mph39%29.83 "HgN/A
7:50 PM77 °FScattered clouds.7 mph44%29.83 "HgN/A
7:20 PM77 °FScattered clouds.10 mph51%29.80 "HgN/A
6:50 PM79 °FScattered clouds.10 mph45%29.80 "HgN/A
6:20 PM77 °FScattered clouds.8 mph47%29.80 "HgN/A
5:50 PM79 °FScattered clouds.7 mph42%29.80 "HgN/A
5:20 PM79 °FScattered clouds.12 mph45%29.80 "HgN/A
4:50 PM77 °FScattered clouds.10 mph57%29.83 "HgN/A
4:20 PM79 °FPartly sunny.No wind54%29.83 "HgN/A
3:50 PM79 °FPartly sunny.6 mph54%29.83 "HgN/A
3:20 PM81 °FPartly sunny.No wind45%29.83 "HgN/A
2:50 PM81 °FMore clouds than sun.No wind45%29.86 "HgN/A
2:20 PM79 °FScattered clouds.6 mph51%29.86 "HgN/A
1:50 PM77 °FScattered clouds.8 mph57%29.83 "HgN/A
1:20 PM77 °FPartly sunny.7 mph61%29.86 "HgN/A
12:50 PM75 °FScattered clouds.9 mph61%29.86 "HgN/A
12:20 PM73 °FBroken clouds.5 mph61%29.89 "HgN/A
11:50 AM73 °FBroken clouds.5 mph65%29.89 "HgN/A
11:20 AM73 °FBroken clouds.15 mph65%29.83 "HgN/A
10:50 AM73 °FBroken clouds.14 mph65%29.86 "HgN/A
10:20 AM72 °FBroken clouds.14 mph69%29.86 "HgN/A
9:50 AM73 °FBroken clouds.13 mph61%29.89 "HgN/A
9:20 AM72 °FBroken clouds.8 mph69%29.89 "HgN/A
8:50 AM72 °FBroken clouds.6 mph65%29.89 "HgN/A
8:20 AM70 °FBroken clouds.8 mph73%29.89 "HgN/A
7:50 AM70 °FScattered clouds.8 mph73%29.86 "HgN/A
7:20 AM68 °FScattered clouds.6 mph78%29.89 "HgN/A
6:50 AM68 °FPassing clouds.8 mph83%29.89 "HgN/A
6:20 AM68 °FPassing clouds.13 mph83%29.89 "HgN/A
5:50 AM66 °FPassing clouds.8 mph83%29.89 "HgN/A
4:50 AM66 °FPassing clouds.5 mph83%29.92 "HgN/A
3:50 AM64 °FPassing clouds.No wind83%29.92 "HgN/A
2:50 AM66 °FPassing clouds.No wind78%29.92 "HgN/A
1:50 AM66 °FPassing clouds.8 mph83%29.95 "HgN/A
12:50 AM66 °FPassing clouds.6 mph78%29.98 "HgN/A
11:50 PM
Thu, May 21
68 °FPassing clouds.No wind78%29.98 "HgN/A
10:50 PM68 °FPassing clouds.3 mph69%29.98 "HgN/A
Weather by CustomWeather, © 2015

See weather overviewHow to use our weather pages